星链-34996 (STARLINK-34996)

导读 | 豆包AI

STARLINK-34996是美国SpaceX公司星链星座中的一颗低轨通信卫星,于2025年8月14日成功发射,运行在近地轨道(LEO)。作为星链全球卫星互联网项目的组成部分,它承担着为地面偏远区域、海洋及空中用户提供高速低延迟宽带互联网服务的任务,助力弥合全球数字鸿沟,推动全球信息化覆盖。星链计划总计规划部署超4万颗卫星,该卫星的入轨进一步完善了星座网络布局,但也延续了公众对太空轨道拥堵与天文观测干扰的争议。

Basic Information
目录编号:
65223
目录名称:
STARLINK-34996
国际标识:
2025-176AB
轨道中心:
EARTH
卫星名称:
星链-34996
卫星全名:
星链-34996 (STARLINK-34996)
卫星状态:
在轨 (已飞行212 天)
发射日期:
2025-08-14 UTC
国别 :
美国 (US)
星等 :
--
Orbit Information
数据来源 国际轨道数据 AOE轨道数据
星历时间 2026-03-12T22:05:09+0800
1天前
查看轨道信息
2026-03-11T08:00:00+0800
3天前
查看轨道信息
半长轴 6853.362km 6853.379km
偏心率 0.0001112 0.0001354
轨道倾角 53.159° 53.156°
近地点辐角 85.904° 71.798°
升交点赤经 139.291° 146.668°
平近点角 274.209° 181.615°
近地点 474.462km 474.314km
远地点 475.988km 476.17km
周期 94.106分钟 94.106分钟
每日圈数 15.301967 15.301911
Detailed Information
固有亮度:
5
最大亮度:
2.5
卫星平台:
Starlink V1.0
覆盖范围:
全球
运营商:
太空探索技术公司
运营商所在国:
美国
制造商(研发单位):
太空探索技术公司
制造商所在国:
美国
使用方式:
暂无
Satellite Introduction
Starlink 计划是 SpaceX 推出的全球卫星互联网项目,通过发射低轨道卫星,为全球尤其是偏远地区提供高速、低延迟的互联网服务。自 2019 年起,Starlink 已部署数千颗卫星,旨在缩小全球数字鸿沟,推动互联网普及。该项目还为军事、航空等行业提供通信支持,带来广泛经济效益。
2D Orbit Map
3D Orbit Map
Orbit Altitude Analysis Chart
Orbit Inclination Analysis Chart
Orbit Comprehensive Analysis Chart
View Comprehensive Chart